EW8163 Weather Reports


Display with metric or nautical units.
time (UTC)temp
F
wind
direction
speed
MPH
gust
MPH
rain 1hr
in
rain 24hr
in
rain mn
in
humidity
%
barometer
mb
20260906005218 71 225 1.0 3.0 0.00 0.00 0.00 36 1020.2
20260906004315 71 225 1.0 2.0 0.00 0.00 0.00 35 1020.2
20260906004220 71 225 2.0 4.0 0.00 0.00 0.00 35 1020.2
20260906003216 72 225 1.0 4.0 0.00 0.00 0.00 33 1020.0
20260906002218 72 237 2.0 4.0 0.00 0.00 0.00 33 1020.1
20260906002117 72 258 1.0 3.0 0.00 0.00 0.00 33 1020.1
20260906000118 72 70 3.0 3.0 0.00 0.00 0.00 33 1020.2
20260905235118 72 227 3.0 6.0 0.00 0.00 0.00 33 1020.1
20260905234118 73 247 0.0 0.0 0.00 0.00 0.00 31 1020.2
20260905233119 73 118 2.0 4.0 0.00 0.00 0.00 30 1020.2
20260905232118 73 232 1.0 5.0 0.00 0.00 0.00 30 1020.1
20260905231118 73 137 2.0 4.0 0.00 0.00 0.00 31 1020.2
20260905230117 73 239 0.0 1.0 0.00 0.00 0.00 29 1020.3
20260905225119 73 274 3.0 6.0 0.00 0.00 0.00 29 1020.3
20260905224117 73 307 2.0 4.0 0.00 0.00 0.00 26 1020.3
20260905223116 73 360 0.0 1.0 0.00 0.00 0.00 28 1020.2
20260905223017 73 337 2.0 5.0 0.00 0.00 0.00 28 1020.2
20260905222018 73 180 2.0 5.0 0.00 0.00 0.00 28 1020.4
20260905221019 72 243 3.0 7.0 0.00 0.00 0.00 29 1020.5
20260905220917 73 242 3.0 6.0 0.00 0.00 0.00 30 1020.4
20260905215017 72 270 0.0 1.0 0.00 0.00 0.00 33 1020.4
20260905214017 72 343 0.0 4.0 0.00 0.00 0.00 34 1020.6
20260905213115 71 192 0.0 2.0 0.00 0.00 0.00 37 1020.5
20260905212117 72 190 4.0 7.0 0.00 0.00 0.00 36 1020.7
20260905211119 71 210 2.0 7.0 0.00 0.00 0.00 37 1020.6
20260905205117 73 212 2.0 7.0 0.00 0.00 0.00 35 1020.4
20260905205018 73 120 3.0 5.0 0.00 0.00 0.00 36 1020.4
20260905204017 72 241 1.0 3.0 0.00 0.00 0.00 36 1020.3
20260905203018 72 5 1.0 4.0 0.00 0.00 0.00 36 1020.3
20260905202916 72 75 1.0 6.0 0.00 0.00 0.00 35 1020.3
20260905200917 73 284 2.0 5.0 0.00 0.00 0.00 35 1020.2
20260905200016 72 138 1.0 3.0 0.00 0.00 0.00 35 1020.2
20260905195018 72 237 5.0 9.0 0.00 0.00 0.00 33 1020.0
20260905194016 73 247 4.0 8.0 0.00 0.00 0.00 33 1020.0
20260905193017 72 204 2.0 3.0 0.00 0.00 0.00 33 1020.2
20260905192115 72 231 1.0 3.0 0.00 0.00 0.00 33 1020.2
20260905191116 72 230 2.0 7.0 0.00 0.00 0.00 33 1020.1
20260905183216 71 35 1.0 4.0 0.00 0.00 0.00 36 1020.0
20260905183115 71 82 3.0 4.0 0.00 0.00 0.00 36 1020.0
20260905181116 69 40 4.0 6.0 0.00 0.00 0.00 37 1020.1
20260905175215 67 135 2.0 3.0 0.00 0.00 0.00 36 1020.2
20260905174216 68 132 3.0 4.0 0.00 0.00 0.00 34 1020.1
20260905174118 69 112 0.0 3.0 0.00 0.00 0.00 35 1020.2
20260905172217 68 135 0.0 0.0 0.00 0.00 0.00 37 1020.0
20260905172116 68 48 1.0 2.0 0.00 0.00 0.00 37 1020.1
20260905171117 68 159 0.0 1.0 0.00 0.00 0.00 36 1020.0
20260905170116 67 153 0.0 2.0 0.00 0.00 0.00 38 1020.1
20260905165116 66 99 0.0 2.0 0.00 0.00 0.00 41 1020.0
20260905163116 64 225 0.0 0.0 0.00 0.00 0.00 49 1020.0
20260905161216 58 225 0.0 0.0 0.00 0.00 0.00 67 1020.0
20260905155217 53 225 0.0 0.0 0.00 0.00 0.00 76 1020.0
20260905154217 53 225 0.0 0.0 0.00 0.00 0.00 78 1020.2
20260905153218 50 225 0.0 0.0 0.00 0.00 0.00 84 1020.0
20260905152217 48 225 0.0 0.0 0.00 0.00 0.00 86 1020.0
20260905151315 45 225 0.0 0.0 0.00 0.00 0.00 92 1019.7
20260905145316 39 225 0.0 0.0 0.00 0.00 0.00 98 1019.3
20260905143415 37 225 0.0 0.0 0.00 0.00 0.00 98 1019.1
20260905143316 37 225 0.0 0.0 0.00 0.00 0.00 98 1019.1
20260905142317 36 157 0.0 0.0 0.00 0.00 0.00 98 1019.0
20260905141316 36 157 0.0 0.0 0.00 0.00 0.00 98 1018.9
20260905140317 36 157 0.0 0.0 0.00 0.00 0.00 98 1019.0
20260905135415 36 157 0.0 0.0 0.00 0.00 0.00 98 1019.0
20260905134514 36 157 0.0 0.0 0.00 0.00 0.00 97 1018.9
20260905132533 36 157 0.0 0.0 0.00 0.00 0.00 98 1018.8
20260905131516 37 157 0.0 0.0 0.00 0.00 0.00 98 1018.8
20260905130517 37 157 0.0 0.0 0.00 0.00 0.00 98 1018.8
20260905130415 37 157 0.0 0.0 0.00 0.00 0.00 98 1018.9
20260905125416 37 157 0.0 0.0 0.00 0.00 0.00 98 1018.9
20260905124416 37 157 0.0 0.0 0.00 0.00 0.00 97 1018.9
20260905123418 37 157 0.0 0.0 0.00 0.00 0.00 98 1018.9
20260905122416 38 157 0.0 0.0 0.00 0.00 0.00 98 1019.0
20260905120516 38 157 0.0 0.0 0.00 0.00 0.00 97 1018.9
20260905115614 38 157 0.0 0.0 0.00 0.00 0.00 97 1019.0
20260905115516 38 157 0.0 0.0 0.00 0.00 0.00 97 1019.0
20260905115417 38 157 0.0 0.0 0.00 0.00 0.00 97 1019.0
20260905114416 38 157 0.0 0.0 0.00 0.00 0.00 96 1019.0
20260905114317 38 157 0.0 0.0 0.00 0.00 0.00 97 1018.9
20260905113218 38 157 0.0 0.0 0.00 0.00 0.00 97 1018.9
20260905112217 39 157 0.0 0.0 0.00 0.00 0.00 97 1019.0
20260905111217 39 157 0.0 0.0 0.00 0.00 0.00 97 1019.0
20260905110315 39 157 0.0 0.0 0.00 0.00 0.00 97 1019.1
20260905105316 39 157 0.0 0.0 0.00 0.00 0.00 97 1019.1
20260905104316 39 157 0.0 0.0 0.00 0.00 0.00 96 1019.1
20260905103316 39 157 0.0 0.0 0.00 0.00 0.00 96 1019.0
20260905102316 39 157 0.0 0.0 0.00 0.00 0.00 97 1019.1
20260905102217 39 157 0.0 0.0 0.00 0.00 0.00 97 1019.1
20260905101216 40 157 0.0 0.0 0.00 0.00 0.00 97 1019.1
20260905100216 40 157 0.0 0.0 0.00 0.00 0.00 97 1019.1
20260905095214 40 157 0.0 0.0 0.00 0.00 0.00 97 1019.2
20260905094216 40 157 0.0 0.0 0.00 0.00 0.00 95 1019.3
20260905092318 40 157 0.0 0.0 0.00 0.00 0.00 95 1019.3
20260905091316 41 157 0.0 0.0 0.00 0.00 0.00 96 1019.3
20260905090316 41 157 0.0 0.0 0.00 0.00 0.00 95 1019.4
20260905084315 41 157 0.0 0.0 0.00 0.00 0.00 95 1019.6
20260905083414 41 157 0.0 0.0 0.00 0.00 0.00 95 1019.7
20260905081416 42 157 0.0 0.0 0.00 0.00 0.00 95 1019.8
20260905080515 42 157 0.0 0.0 0.00 0.00 0.00 95 1019.8
20260905080416 42 157 0.0 0.0 0.00 0.00 0.00 94 1019.8
20260905075415 42 157 0.0 0.0 0.00 0.00 0.00 94 1019.9
20260905075314 42 157 0.0 0.0 0.00 0.00 0.00 94 1019.8
20260905074316 43 157 0.0 0.0 0.00 0.00 0.00 95 1019.8
20260905072415 43 157 0.0 0.0 0.00 0.00 0.00 94 1019.9
20260905071414 44 157 0.0 0.0 0.00 0.00 0.00 93 1019.8
20260905071316 44 157 0.0 0.0 0.00 0.00 0.00 94 1019.8
20260905065334 44 157 0.0 0.0 0.00 0.00 0.00 93 1019.8
20260905063433 45 157 0.0 0.0 0.00 0.00 0.00 92 1019.7
20260905063332 45 157 0.0 0.0 0.00 0.00 0.00 91 1019.6
20260905062335 45 157 0.0 0.0 0.00 0.00 0.00 93 1019.7
20260905062233 45 157 0.0 0.0 0.00 0.00 0.00 93 1019.6
20260905062133 45 157 0.0 0.0 0.00 0.00 0.00 92 1019.7
20260905061134 45 157 0.0 0.0 0.00 0.00 0.00 93 1019.6
20260905055234 45 157 0.0 0.0 0.00 0.00 0.00 92 1019.5
20260905054235 45 157 0.0 0.0 0.00 0.00 0.00 91 1019.6
20260905054134 45 157 0.0 0.0 0.00 0.00 0.00 91 1019.6
20260905053233 45 157 0.0 0.0 0.00 0.00 0.00 91 1019.6
20260905053132 45 157 0.0 0.0 0.00 0.00 0.00 91 1019.6
20260905052133 46 157 0.0 0.0 0.00 0.00 0.00 90 1019.6
20260905051134 46 157 0.0 0.0 0.00 0.00 0.00 90 1019.6
20260905050233 47 157 0.0 0.0 0.00 0.00 0.00 89 1019.7
20260905045332 47 157 0.0 0.0 0.00 0.00 0.00 89 1019.6
20260905044334 48 157 0.0 0.0 0.00 0.00 0.00 88 1019.6
20260905044232 48 157 0.0 0.0 0.00 0.00 0.00 88 1019.5
20260905043332 48 157 0.0 0.0 0.00 0.00 0.00 88 1019.6
20260905042334 48 157 0.0 0.0 0.00 0.00 0.00 86 1019.4
20260905041334 49 157 0.0 0.0 0.00 0.00 0.00 86 1019.2
20260905035334 50 157 0.0 0.0 0.00 0.00 0.00 84 1019.1
20260905035236 50 157 0.0 0.0 0.00 0.00 0.00 84 1019.0
20260905034235 51 157 0.0 0.0 0.00 0.00 0.00 82 1018.9
20260905033233 51 157 0.0 0.0 0.00 0.00 0.00 82 1018.9
20260905032232 52 157 0.0 0.0 0.00 0.00 0.00 81 1018.8
20260905031235 53 157 0.0 0.0 0.00 0.00 0.00 81 1018.6
20260905030235 53 157 0.0 0.0 0.00 0.00 0.00 78 1018.7
20260905025233 54 157 0.0 0.0 0.00 0.00 0.00 78 1018.5
20260905023234 56 157 0.0 0.0 0.00 0.00 0.00 74 1018.5
20260905023132 56 157 0.0 0.0 0.00 0.00 0.00 74 1018.5
20260905022133 57 157 0.0 0.0 0.00 0.00 0.00 72 1018.6
20260905022032 58 157 0.0 0.0 0.00 0.00 0.00 72 1018.6
20260905021048 58 112 0.0 0.0 0.00 0.00 0.00 71 1018.4
20260905020036 59 225 0.0 2.0 0.00 0.00 0.00 70 1018.4
20260905015133 60 225 0.0 0.0 0.00 0.00 0.00 69 1018.5
20260905014233 61 225 0.0 1.0 0.00 0.00 0.00 66 1018.5
20260905012333 63 180 0.0 0.0 0.00 0.00 0.00 60 1018.5
20260905011335 66 180 0.0 1.0 0.00 0.00 0.00 55 1018.4
20260905005433 67 247 0.0 0.0 0.00 0.00 0.00 52 1018.3